Location: Twentynine Palms Airport
(34.1316°N, 115.9458°W)
Time: 05:46:17
(UTC-07:00)

Amateur Radio Satellites - All Passes

Search period start: 19 October 2017 05:16
Search period end: 20 October 2017 05:16
Location: Twentynine Palms Airport, 34.1316°N, 115.9458°W

Satellite Date Start Highest point End Downlink Frequencies (MHz)
Time Altitude Azimuth
XW-2C 19 Oct 05:48:24 05:49:55 12° 93° (E) 05:51:26 145.795 - 145.815
JUGNU 19 Oct 05:51:59 05:54:13 12° 166° (SSE) 05:56:26 437.505
O/OREOS (USA 219) 19 Oct 05:53:14 05:55:13 13° 58° (ENE) 05:57:12 437.305
RS-15 19 Oct 05:53:38 05:57:55 12° 358° (N) 06:02:10 29.354- 29.394
DOVE 4 19 Oct 06:00:54 06:05:55 80° 284° (WNW) 06:11:08 437.250
KKS-1 19 Oct 06:03:29 06:06:53 22° 264° (W) 06:10:20 437.445
STRAND 1 19 Oct 06:26:46 06:30:30 21° 67° (ENE) 06:34:14 437.568
HO-68 19 Oct 06:28:03 06:31:59 15° 92° (E) 06:35:52 435.675
XW-2F 19 Oct 06:32:46 06:36:22 45° 100° (E) 06:39:56 145.980 - 146.000
KAITUO 1B 19 Oct 06:33:34 06:36:58 34° 98° (E) 06:40:20 145.475/437.950
LilacSat-2 19 Oct 06:34:52 06:38:35 59° 100° (E) 06:42:17 437.200
CUTE-I 19 Oct 06:38:07 06:43:15 45° 99° (E) 06:48:23 437.470
STARS 19 Oct 06:40:16 06:43:37 21° 264° (W) 06:47:00 437.465
XW-2D 19 Oct 06:43:55 06:47:39 77° 100° (E) 06:51:23 145.860 - 145.880
NUDT-PHONESAT 19 Oct 06:49:57 06:53:33 58° 100° (E) 06:57:08 437.300
XW-2B 19 Oct 06:57:20 07:01:04 72° 284° (WNW) 07:04:46 145.730 - 145.750
SO-50 19 Oct 07:16:04 07:20:30 65° 300° (WNW) 07:24:58 436.795
XW-2C 19 Oct 07:20:48 07:24:10 32° 287° (WNW) 07:27:31 145.795 - 145.815
O/OREOS (USA 219) 19 Oct 07:30:28 07:34:59 56° 254° (WSW) 07:39:27 437.305
UWE-3 19 Oct 07:32:09 07:34:39 15° 92° (E) 07:37:05 435.000/436.395/437.385
JUGNU 19 Oct 07:38:32 07:42:30 19° 175° (S) 07:46:26 437.505
CUTE 1.7 + AOD 2 19 Oct 07:39:20 07:43:30 62° 100° (E) 07:47:39 437.475
SEEDS 19 Oct 07:49:10 07:53:12 47° 99° (E) 07:57:12 437.485
FO-29 19 Oct 07:50:50 07:54:28 19° 65° (ENE) 07:58:14 435.910
STRAND 1 19 Oct 08:04:35 08:09:21 39° 261° (W) 08:14:09 437.568
RS-15 19 Oct 08:08:17 08:17:18 23° 35° (NE) 08:25:56 29.354- 29.394
KAITUO 1B 19 Oct 08:09:15 08:10:34 12° 292° (WNW) 08:11:53 145.475/437.950
HO-68 19 Oct 08:13:04 08:20:17 79° 287° (WNW) 08:27:28 435.675
PCSat 19 Oct 08:14:05 08:19:24 62° 112° (ESE) 08:24:45 145.827
YUBILEINY 19 Oct 08:15:48 08:21:32 20° 81° (E) 08:27:16 435.215
AAUSAT CUBESAT 2 19 Oct 08:17:11 08:21:06 41° 99° (E) 08:25:00 437.432
CUTE-I 19 Oct 08:19:08 08:22:54 20° 294° (WNW) 08:26:41 437.470
CUBEBUG 2 19 Oct 08:25:56 08:30:33 67° 284° (WNW) 08:34:59 437.445
AO-73 19 Oct 08:26:32 08:30:16 28° 96° (E) 08:33:55 145.935
XW-2A 19 Oct 08:44:08 08:47:21 46° 284° (WNW) 08:50:32 145.665 - 145.685
ZACube-1 19 Oct 08:47:20 08:51:40 59° 100° (E) 08:55:51 437.345
UNISAT 6 19 Oct 09:01:56 09:05:33 23° 69° (ENE) 09:09:14 437.425
UWE-3 19 Oct 09:07:03 09:11:15 39° 287° (WNW) 09:15:18 435.000/436.395/437.385
TIGRISAT 19 Oct 09:16:36 09:20:38 30° 71° (ENE) 09:24:43 435.000
Oscar 11 19 Oct 09:26:20 09:30:39 80° 281° (WNW) 09:34:55 .
JUGNU 19 Oct 09:26:54 09:30:48 18° 186° (S) 09:34:42 437.505
SEEDS 19 Oct 09:26:57 09:28:25 12° 293° (WNW) 09:29:51 437.485
Max Valier Satellite 19 Oct 09:33:43 09:35:34 13° 94° (E) 09:37:25 145.860
FO-29 19 Oct 09:34:22 09:39:12 40° 262° (W) 09:44:16 435.910
nSIGHT-1 19 Oct 09:50:20 09:53:29 69° 135° (SE) 09:56:40 .
AAUSAT CUBESAT 2 19 Oct 09:54:17 09:56:07 13° 293° (WNW) 09:57:58 437.432
DELFI C3 19 Oct 09:56:46 10:00:33 43° 99° (E) 10:04:20 145.870
SRMSAT 19 Oct 09:59:24 10:03:12 18° 172° (S) 10:07:01 437.500
PCSat 19 Oct 09:59:44 10:03:12 17° 309° (NW) 10:06:42 145.827
AO-73 19 Oct 10:03:07 10:06:16 20° 291° (WNW) 10:09:22 145.935
HO-68 19 Oct 10:04:01 10:06:51 13° 304° (WNW) 10:09:41 435.675
YUBILEINY 19 Oct 10:08:42 10:17:21 71° 278° (W) 10:26:04 435.215
ISS 19 Oct 10:20:03 10:23:16 61° 319° (NW) 10:26:29 437.550
RS-15 19 Oct 10:20:06 10:32:01 79° 60° (ENE) 10:43:13 29.354- 29.394
ZACube-1 19 Oct 10:26:56 10:27:19 10° 295° (WNW) 10:27:43 437.345
PRISM 19 Oct 10:29:09 10:33:11 80° 259° (W) 10:37:15 437.425
AIST 2D 19 Oct 10:34:27 10:37:02 20° 72° (ENE) 10:39:38 435.315
UNISAT 6 19 Oct 10:38:04 10:42:03 29° 264° (W) 10:46:06 437.425
QB50P2 19 Oct 10:40:43 10:41:57 11° 66° (ENE) 10:43:12 145.880/145.840
TIGRISAT 19 Oct 10:53:45 10:57:17 21° 265° (W) 11:00:51 435.000
NO-84 19 Oct 10:55:09 10:58:35 35° 42° (NE) 11:01:44 435.350 FM
DUCHIFAT 1 19 Oct 10:56:21 10:57:49 12° 66° (ENE) 10:59:17 145.980
EO-88 19 Oct 10:58:47 11:02:19 51° 284° (WNW) 11:05:49 145.990 - 145.960
Max Valier Satellite 19 Oct 11:06:14 11:09:24 28° 287° (WNW) 11:12:33 145.860
JUGNU 19 Oct 11:17:10 11:19:04 12° 195° (SSW) 11:20:59 437.505
ESTCUBE 1 19 Oct 11:17:46 11:20:52 18° 95° (E) 11:23:56 437.505/2401.250
nSIGHT-1 19 Oct 11:28:31 11:30:04 13° 331° (NNW) 11:31:39 .
DELFI C3 19 Oct 11:33:34 11:34:52 11° 293° (WNW) 11:36:10 145.870
SRMSAT 19 Oct 11:47:31 11:51:42 20° 182° (S) 11:55:53 437.500
EO-79 19 Oct 11:48:22 11:52:34 67° 77° (ENE) 11:56:50 145.935-145.965
LO-87 19 Oct 11:51:56 11:55:34 79° 101° (ESE) 11:59:10 145.935 - 145.965
POLYITAN 1 19 Oct 11:52:44 11:56:59 76° 77° (ENE) 12:01:16 437.675
BEESAT 2 19 Oct 11:56:34 11:58:13 12° 108° (ESE) 11:59:52 435.950
AIST 2D 19 Oct 12:07:39 12:10:05 18° 265° (W) 12:12:31 435.315
Oscar 19 19 Oct 12:08:23 12:10:13 12° 63° (ENE) 12:12:03 437.125/150
SPROUT 19 Oct 12:12:30 12:15:17 17° 94° (E) 12:18:04 437.525
QB50P2 19 Oct 12:13:03 12:17:13 53° 260° (W) 12:21:25 145.880/145.840
BEESAT 3 19 Oct 12:13:22 12:17:20 84° 120° (ESE) 12:21:22 437.485
YUBILEINY 19 Oct 12:14:08 12:15:44 11° 297° (WNW) 12:17:21 435.215
NANOSAT C BR1 19 Oct 12:17:24 12:21:34 60° 259° (WSW) 12:25:48 145.865
DUCHIFAT 1 19 Oct 12:28:52 12:32:58 50° 260° (W) 12:37:07 145.980
Gurwin Techsat 1B 19 Oct 12:30:11 12:32:50 14° 64° (ENE) 12:35:29 435.225
NO-84 19 Oct 12:33:31 12:35:35 15° 239° (WSW) 12:37:33 435.350 FM
RS-15 19 Oct 12:34:43 12:42:58 23° 259° (W) 12:50:59 29.354- 29.394
AO-85 19 Oct 12:39:24 12:42:36 25° 112° (ESE) 12:45:48 145.980
BUGSAT 1 19 Oct 12:40:56 12:44:56 48° 74° (ENE) 12:49:00 437.445
VELOX 1 19 Oct 12:48:00 12:51:53 30° 97° (E) 12:55:47 145.980
ESTCUBE 1 19 Oct 12:53:41 12:57:41 33° 288° (WNW) 13:01:40 437.505/2401.250
BEESAT 2 19 Oct 13:31:41 13:35:30 43° 302° (WNW) 13:39:22 435.950
SRMSAT 19 Oct 13:37:02 13:40:10 15° 192° (SSW) 13:43:19 437.500
Oscar 19 19 Oct 13:43:42 13:48:52 72° 258° (WSW) 13:54:01 437.125/150
M-CUBED/EXP-1 PRIME 19 Oct 13:44:06 13:47:27 44° 255° (WSW) 13:50:40 437.505
SPROUT 19 Oct 13:47:22 13:51:13 32° 288° (WNW) 13:55:01 437.525
DX 1 19 Oct 13:57:23 14:01:33 42° 100° (E) 14:05:41 434.975-435.025
Gurwin Techsat 1B 19 Oct 14:06:55 14:12:10 64° 258° (WSW) 14:17:27 435.225
AO-7 19 Oct 14:07:03 14:13:47 29° 60° (ENE) 14:20:30 .
ITAMSAT 1 19 Oct 14:17:32 14:19:43 13° 63° (ENE) 14:21:54 435.822/435.867
BUGSAT 1 19 Oct 14:19:37 14:20:30 11° 268° (W) 14:21:25 437.445
AO-85 19 Oct 14:19:58 14:22:54 20° 307° (NW) 14:25:54 145.980
50 SAT 19 Oct 14:22:39 14:25:53 54° 284° (WNW) 14:29:06 437.505
UKube-1 19 Oct 14:23:30 14:27:44 52° 100° (E) 14:31:57 .
VELOX 1 19 Oct 14:24:50 14:28:06 20° 291° (WNW) 14:31:21 145.980
MOZHAYETS 4 19 Oct 14:48:44 14:50:33 12° 92° (E) 14:52:21
ITUPSAT 1 19 Oct 15:07:30 15:10:46 18° 95° (E) 15:14:01 437.325
BEESAT 19 Oct 15:23:00 15:27:05 28° 97° (E) 15:31:07 436.000
DX 1 19 Oct 15:34:57 15:37:19 14° 293° (WNW) 15:39:41 434.975-435.025
SO-50 19 Oct 15:50:42 15:55:02 38° 56° (ENE) 15:59:24 436.795
ITAMSAT 1 19 Oct 15:53:23 15:58:32 68° 258° (WSW) 16:03:43 435.822/435.867
AO-7 19 Oct 15:57:53 16:05:59 58° 256° (WSW) 16:14:09 .
UKube-1 19 Oct 16:01:48 16:03:15 11° 295° (WNW) 16:04:42 .
nSIGHT-1 19 Oct 16:21:00 16:23:07 16° 32° (NNE) 16:25:13 .
MOZHAYETS 4 19 Oct 16:23:30 16:27:56 50° 286° (WNW) 16:32:19
CUBESAT XI-V 19 Oct 16:32:16 16:36:32 37° 98° (E) 16:40:47 437.345
ITUPSAT 1 19 Oct 16:44:14 16:48:40 38° 288° (WNW) 16:53:02 437.325
ISS 19 Oct 16:51:02 16:53:51 26° 36° (NE) 16:56:39 437.550
BEESAT 19 Oct 17:00:48 17:04:41 25° 291° (WNW) 17:08:33 436.000
DOVE 4 19 Oct 17:03:01 17:07:06 64° 76° (ENE) 17:11:20 437.250
PCSat 19 Oct 17:06:18 17:10:37 23° 54° (NE) 17:14:53 145.827
XW-2F 19 Oct 17:11:18 17:13:12 13° 69° (ENE) 17:15:05 145.980 - 146.000
KAITUO 1B 19 Oct 17:12:48 17:13:01 10° 67° (ENE) 17:13:14 145.475/437.950
LilacSat-2 19 Oct 17:13:54 17:16:27 17° 70° (ENE) 17:19:00 437.200
XW-2D 19 Oct 17:21:54 17:24:46 21° 71° (ENE) 17:27:38 145.860 - 145.880
NUDT-PHONESAT 19 Oct 17:26:23 17:28:34 15° 70° (ENE) 17:30:45 437.300
SO-50 19 Oct 17:31:56 17:35:11 19° 250° (WSW) 17:38:29 436.795
XW-2B 19 Oct 17:34:50 17:38:08 29° 73° (ENE) 17:41:26 145.730 - 145.750
CUTE-I 19 Oct 17:56:10 18:01:17 51° 73° (ENE) 18:06:26 437.470
nSIGHT-1 19 Oct 17:56:28 17:59:33 45° 227° (SW) 18:02:38 .
KKS-1 19 Oct 17:56:41 18:01:11 88° 290° (WNW) 18:05:41 437.445
XW-2C 19 Oct 17:57:31 18:01:16 61° 76° (ENE) 18:05:01 145.795 - 145.815
CUBESAT XI-V 19 Oct 18:10:34 18:13:34 18° 292° (WNW) 18:16:35 437.345
ISS 19 Oct 18:27:32 18:30:15 24° 230° (SW) 18:32:56 437.550
CUTE 1.7 + AOD 2 19 Oct 18:28:27 18:32:00 27° 71° (ENE) 18:35:32 437.475
STARS 19 Oct 18:31:51 18:36:18 89° 89° (E) 18:40:44 437.465
HO-68 19 Oct 18:37:12 18:44:06 53° 70° (ENE) 18:51:02 435.675
SEEDS 19 Oct 18:37:42 18:40:46 20° 70° (ENE) 18:43:50 437.485
KAITUO 1B 19 Oct 18:43:00 18:46:34 42° 261° (W) 18:50:08 145.475/437.950
XW-2F 19 Oct 18:43:34 18:46:59 32° 262° (W) 18:50:24 145.980 - 146.000
LilacSat-2 19 Oct 18:47:18 18:50:30 25° 264° (W) 18:53:42 437.200
PCSat 19 Oct 18:49:03 18:54:07 42° 250° (WSW) 18:59:10 145.827
XW-2D 19 Oct 18:55:55 18:58:48 20° 264° (W) 19:01:41 145.860 - 145.880
NUDT-PHONESAT 19 Oct 18:58:58 19:02:09 27° 263° (W) 19:05:22 437.300
AAUSAT CUBESAT 2 19 Oct 19:04:27 19:07:08 17° 69° (ENE) 19:09:48 437.432
XW-2B 19 Oct 19:10:09 19:12:18 15° 266° (W) 19:14:28 145.730 - 145.750
XW-2A 19 Oct 19:11:30 19:14:21 25° 73° (ENE) 19:17:13 145.665 - 145.685
AO-73 19 Oct 19:18:56 19:21:39 16° 67° (ENE) 19:24:21 145.935
CUBEBUG 2 19 Oct 19:19:20 19:23:54 63° 75° (ENE) 19:28:35 437.445
CUTE-I 19 Oct 19:38:22 19:41:34 16° 267° (W) 19:44:46 437.470
ZACube-1 19 Oct 19:39:04 19:43:02 30° 72° (ENE) 19:47:00 437.345
UWE-3 19 Oct 19:59:00 20:03:37 83° 257° (WSW) 20:08:19 435.000/436.395/437.385
O/OREOS (USA 219) 19 Oct 20:00:22 20:04:06 26° 102° (ESE) 20:07:52 437.305
CUTE 1.7 + AOD 2 19 Oct 20:04:38 20:07:45 20° 265° (W) 20:10:53 437.475
SEEDS 19 Oct 20:12:45 20:16:15 26° 264° (W) 20:19:46 437.485
Oscar 11 19 Oct 20:17:02 20:21:10 46° 74° (ENE) 20:25:20 .
STRAND 1 19 Oct 20:18:21 20:23:33 86° 284° (WNW) 20:28:41 437.568
YUBILEINY 19 Oct 20:23:34 20:32:02 49° 78° (ENE) 20:40:28 435.215
HO-68 19 Oct 20:26:26 20:32:02 25° 265° (W) 20:37:41 435.675
BEESAT 3 19 Oct 20:34:34 20:36:57 15° 51° (NE) 20:39:18 437.485
AAUSAT CUBESAT 2 19 Oct 20:38:42 20:42:19 30° 263° (W) 20:45:55 437.432
DELFI C3 19 Oct 20:39:36 20:41:48 15° 69° (ENE) 20:44:00 145.870
FO-29 19 Oct 20:45:11 20:51:32 34° 97° (E) 20:58:17 435.910
XW-2A 19 Oct 20:45:27 20:47:02 13° 266° (W) 20:48:39 145.665 - 145.685
AO-73 19 Oct 20:53:09 20:57:27 42° 261° (W) 21:01:49 145.935
CUBEBUG 2 19 Oct 21:00:19 21:00:52 10° 270° (W) 21:01:24 437.445
AO-85 19 Oct 21:14:22 21:16:05 12° 48° (NE) 21:17:49 145.980
ZACube-1 19 Oct 21:15:46 21:19:15 21° 265° (W) 21:22:45 437.345
EO-88 19 Oct 21:32:29 21:35:46 33° 74° (ENE) 21:39:04 145.990 - 145.960
O/OREOS (USA 219) 19 Oct 21:39:41 21:43:24 24° 297° (WNW) 21:47:09 437.305
Max Valier Satellite 19 Oct 21:40:19 21:44:00 64° 77° (ENE) 21:47:43 145.860
BEESAT 2 19 Oct 21:52:39 21:56:15 31° 56° (NE) 21:59:49 435.950
Oscar 11 19 Oct 21:55:51 21:57:30 12° 268° (W) 21:59:09 .
BEESAT 3 19 Oct 22:10:59 22:14:39 38° 246° (WSW) 22:18:12 437.485
DELFI C3 19 Oct 22:12:46 22:16:14 31° 262° (W) 22:19:44 145.870
PRISM 19 Oct 22:14:50 22:17:39 18° 95° (E) 22:20:29 437.425
ESTCUBE 1 19 Oct 22:15:28 22:16:52 11° 65° (ENE) 22:18:15 437.505/2401.250
YUBILEINY 19 Oct 22:21:01 22:28:22 31° 275° (W) 22:35:45 435.215
LO-87 19 Oct 22:25:02 22:27:24 17° 70° (ENE) 22:29:47 145.935 - 145.965
FO-29 19 Oct 22:29:57 22:36:27 43° 289° (WNW) 22:43:30 435.910
RS-15 19 Oct 22:32:30 22:38:02 14° 97° (E) 22:43:36 29.354- 29.394
UNISAT 6 19 Oct 22:32:45 22:37:22 82° 103° (ESE) 22:41:51 437.425
TIGRISAT 19 Oct 22:47:45 22:52:21 74° 284° (WNW) 22:56:48 435.000
AO-85 19 Oct 22:52:14 22:56:55 81° 243° (WSW) 23:01:57 145.980
EO-88 19 Oct 23:08:13 23:09:29 11° 267° (W) 23:10:45 145.990 - 145.960
BEESAT 2 19 Oct 23:31:03 23:33:42 17° 251° (WSW) 23:36:21 435.950
AIST 2D 19 Oct 23:34:55 23:38:11 38° 99° (E) 23:41:25 435.315
EO-79 19 Oct 23:38:11 23:40:29 14° 94° (E) 23:42:46 145.935-145.965
VELOX 1 19 Oct 23:42:24 23:45:14 17° 68° (ENE) 23:48:05 145.980
POLYITAN 1 19 Oct 23:42:26 23:45:06 16° 94° (E) 23:47:43 437.675
ESTCUBE 1 19 Oct 23:48:41 23:53:06 57° 260° (W) 23:57:32 437.505/2401.250
PRISM 19 Oct 23:49:20 23:52:54 29° 288° (WNW) 23:56:28 437.425
LO-87 19 Oct 23:57:47 00:00:37 22° 264° (W) 00:03:28 145.935 - 145.965
QB50P2 20 Oct 00:01:42 00:05:30 31° 97° (E) 00:09:16 145.880/145.840
NANOSAT C BR1 20 Oct 00:05:38 00:09:16 27° 97° (E) 00:12:51 145.865
DUCHIFAT 1 20 Oct 00:16:33 00:20:20 32° 97° (E) 00:24:05 145.980
SPROUT 20 Oct 00:35:58 00:40:13 73° 258° (WSW) 00:44:30 437.525
RS-15 20 Oct 00:36:15 00:48:25 76° 114° (ESE) 01:00:42 29.354- 29.394
50 SAT 20 Oct 00:47:59 00:50:27 20° 72° (ENE) 00:52:57 437.505
DX 1 20 Oct 00:49:40 00:53:04 23° 69° (ENE) 00:56:28 434.975-435.025
EO-79 20 Oct 01:12:24 01:16:20 37° 287° (WNW) 01:20:14 145.935-145.965
UKube-1 20 Oct 01:14:28 01:18:05 27° 71° (ENE) 01:21:43 .
POLYITAN 1 20 Oct 01:17:05 01:20:55 33° 288° (WNW) 01:24:42 437.675
VELOX 1 20 Oct 01:17:24 01:21:22 34° 262° (W) 01:25:23 145.980
M-CUBED/EXP-1 PRIME 20 Oct 01:26:25 01:27:57 12° 100° (E) 01:29:30 437.505
QB50P2 20 Oct 01:38:08 01:41:00 18° 292° (WNW) 01:43:51 145.880/145.840
NANOSAT C BR1 20 Oct 01:41:39 01:44:45 20° 291° (WNW) 01:47:50 145.865
DUCHIFAT 1 20 Oct 01:52:55 01:55:42 17° 292° (WNW) 01:58:28 145.980
Oscar 19 20 Oct 01:59:05 02:04:06 54° 101° (E) 02:09:05 437.125/150
BUGSAT 1 20 Oct 02:01:18 02:05:26 55° 285° (WNW) 02:09:30 437.445
NO-84 20 Oct 02:06:43 02:10:14 25° 124° (SE) 02:13:47 435.350 FM
ITUPSAT 1 20 Oct 02:11:22 02:14:02 15° 65° (ENE) 02:16:43 437.325
50 SAT 20 Oct 02:20:55 02:22:42 14° 265° (W) 02:24:30 437.505
DX 1 20 Oct 02:25:33 02:29:05 25° 263° (W) 02:32:39 434.975-435.025
BEESAT 20 Oct 02:26:04 02:29:42 22° 68° (ENE) 02:33:20 436.000
Gurwin Techsat 1B 20 Oct 02:26:50 02:32:09 70° 102° (ESE) 02:37:27 435.225
UKube-1 20 Oct 02:50:50 02:54:02 20° 264° (W) 02:57:16 .
RS-15 20 Oct 02:51:21 03:02:03 33° 316° (NW) 03:12:46 29.354- 29.394
M-CUBED/EXP-1 PRIME 20 Oct 02:59:03 03:02:22 35° 290° (WNW) 03:05:55 437.505
MOZHAYETS 4 20 Oct 03:20:57 03:25:35 84° 255° (WSW) 03:30:15
CUBESAT XI-V 20 Oct 03:32:09 03:35:53 25° 70° (ENE) 03:39:36 437.345
Oscar 19 20 Oct 03:40:00 03:42:54 15° 295° (WNW) 03:45:48 437.125/150
NO-84 20 Oct 03:43:32 03:47:31 36° 318° (NW) 03:51:28 435.350 FM
ITUPSAT 1 20 Oct 03:46:44 03:51:23 50° 260° (W) 03:56:04 437.325
BEESAT 20 Oct 04:02:58 04:07:14 32° 262° (W) 04:11:31 436.000
AO-7 20 Oct 04:03:25 04:11:39 62° 104° (ESE) 04:19:51 .
Gurwin Techsat 1B 20 Oct 04:09:09 04:11:26 13° 297° (WNW) 04:13:44 435.225
ITAMSAT 1 20 Oct 04:09:58 04:15:08 58° 101° (E) 04:20:16 435.822/435.867
KKS-1 20 Oct 04:50:45 04:55:02 51° 74° (ENE) 04:59:22 437.445
DOVE 4 20 Oct 05:04:54 05:09:09 27° 96° (E) 05:13:32 437.250
